User: anonymous   Login
Location: Caltech
(34.1382°N, 118.1253°W)
Time: 22:25:43
(UTC-07:00)
Language:

COSMOS 2428 - Orbit

View from above orbital plane
View from above orbital plane
View from above satellite
View from above satellite

Ground track
Ground track

The orbit data is extracted from the following two-line orbital elements,

1 31792U 07029A   14304.79371838  .00000318  00000-0  19813-3 0  1346
2 31792 070.9736 263.3371 0011926 277.8657 159.8152 14.12459242378601
Epoch (UTC): 31 October 2014 19:02:57
Eccentricity: 0.0011926
inclination: 70.9736°
perigee height: 842 km
apogee height: 859 km
right ascension of ascending node: 263.3371°
argument of perigee: 277.8657°
revolutions per day: 14.12459242
mean anomaly at epoch: 159.8152°
orbit number at epoch: 37860

The dashed part of the orbit path shows where the satellite is in the earth's shadow,  

DLR